Regional Weather Roundup
Issued by NWS Boston, MA

Home | Current Version | Previous Version | Text Only | Print | Product List | Glossary On
Versions: 1 2 3 4 5 6 7 8 9 10 11 12 13 14 15 16 17 18 19 20 21 22 23 24 25 26 27 28 29 30 31 32 33 34 35 36 37 38 39 40 41 42 43 44 45 46 47 48 49 50
000
ASUS41 KBOX 070510
RWRBOX

REGIONAL WEATHER ROUNDUP
NATIONAL WEATHER SERVICE TAUNTON MA
1200 AM EST SAT MAR 07 2015

NOTE:  "FAIR" INDICATES FEW OR NO CLOUDS BELOW 12,000 FEET WITH NO
SIGNIFICANT WEATHER AND/OR OBSTRUCTIONS TO VISIBILITY.  THE FOLLOWING
OBSERVATION LOCATIONS DO NOT REPORT PRESENT WEATHER...PROVINCETOWN...
SMITHFIELD...BLOCK ISLAND...KEENE...AND OXFORD.

MAZALL-070600-
EASTERN MASSACHUSETTS

CITY           SKY/WX    TMP DP  RH WIND       PRES   REMARKS
BOSTON         MOCLDY    20   6  55 SW13      30.29F WCI   7
BEVERLY        MOCLDY    18   5  57 SW6       30.27F WCI  10
LAWRENCE       MOCLDY    18   5  57 SW6       30.28F WCI  10
BEDFORD        MOCLDY    17   4  56 SW7       30.27F WCI   8
BLUE HILL        N/A     16   4  59 SW14      30.23F WCI   2
NORWOOD        MOCLDY    19   4  51 SW7       30.30F WCI  10
MARSHFIELD     PTCLDY    19  10  68 SW8       30.31F WCI   9
PLYMOUTH       PTCLDY     9   5  84 SW3       30.30F
TAUNTON        MOCLDY     8   5  87 CALM      30.30F
NEW BEDFORD    MOCLDY    11   7  84 CALM      30.31F
$$

MAZALL-070600-
CAPE COD AND THE ISLANDS

CITY           SKY/WX    TMP DP  RH WIND       PRES   REMARKS
FALMOUTH       CLOUDY    10   7  85 CALM      30.30F
HYANNIS        PTCLDY    13   9  84 W3        30.29F
CHATHAM        PTCLDY    18  13  80 W5        30.31F WCI  11
PROVINCETOWN   PTCLDY    21  10  63 SW20      30.30F WCI   6
NANTUCKET      PTCLDY    21  13  71 W7        30.31F WCI  12
MARTHAS VNYRD  PTCLDY     9   1  70 SW3       30.31F
$$

MAZALL-070600-
CENTRAL AND WESTERN MASSACHUSETTS

CITY           SKY/WX    TMP DP  RH WIND       PRES   REMARKS
WORCESTER      MOCLDY    15   3  59 W14       30.20F WCI   0
FITCHBURG      MOCLDY    18   2  49 E3        30.26F
ORANGE         PTCLDY     5  -1  76 CALM      30.25F
SPRINGFIELD    PTCLDY    14   5  67 S8        30.27F WCI   3
WESTFIELD      PTCLDY    12   3  67 CALM      30.28F
NORTH ADAMS    PTCLDY     5  -3  69 CALM      30.25F
PITTSFIELD     CLEAR      7  -2  66 NE3       30.19F
$$

RIZALL-070600-
RHODE ISLAND

CITY           SKY/WX    TMP DP  RH WIND       PRES   REMARKS
PROVIDENCE     MOCLDY    16   6  65 W5        30.32F WCI   9
NEWPORT        MOCLDY    19   7  59 W6        30.31F WCI  11
BLOCK ISLAND   PTCLDY    21   7  53 W14       30.30F WCI   8
SMITHFIELD     MOCLDY    16   1  53 SW5       30.26F WCI   9
WESTERLY       MOCLDY    21   9  59 SW6       30.32F WCI  13
$$

CTZALL-070600-
CONNECTICUT

CITY           SKY/WX    TMP DP  RH WIND       PRES   REMARKS
BRADLEY INTL   MOCLDY    19   6  57 S7        30.30F WCI  10
HARTFORD       PTCLDY    19  10  68 S7        30.32F WCI  10
BRIDGEPORT     FAIR      21  12  68 W9        30.34F WCI  11
DANBURY        PTCLDY    17   3  54 SW3       30.31F
GROTON         MOCLDY    22  10  60 W10       30.32F WCI  11
NEW HAVEN      PTCLDY    23  13  65 W8        30.33F WCI  14
CHESTER        FAIR      21  12  68 SW6       30.30F WCI  14
MERIDEN        PTCLDY    13   7  77 SW3       30.32F
WILLIMANTIC    MOCLDY    13   5  70 CALM      30.31F
OXFORD         PTCLDY    18   1  49 W5        30.27F WCI  11
$$

MEZ002-015-021-024-NHZ003-005-008-011-012-014-VTZ005-008-070600-
NORTHERN NEW ENGLAND

CITY           SKY/WX    TMP DP  RH WIND       PRES   REMARKS
PORTLAND ME    PTCLDY    20   2  45 SW8       30.23F WCI  10
BANGOR ME      MOCLDY     9   1  70 SW3       30.20F
CONCORD NH     MOCLDY    12  -2  53 CALM      30.24F
MANCHESTER NH  MOCLDY    19  -1  41 S3        30.24F
NASHUA NH      MOCLDY    12   1  61 CALM      30.28F
PORTSMOUTH NH  MOCLDY    17   1  49 SW8       30.24F WCI   7
JAFFREY NH     PTCLDY    14  -2  49 SW6       30.20F WCI   5
KEENE NH       PTCLDY     7   0  72 CALM      30.24F
BURLINGTON VT  MOCLDY    18  -2  41 S9        30.19F WCI   7
MT. WASHINGTON MOCLDY    -6 -15  65 NW48        N/A  WCI -39
$$

NYZ052-076-070600-
EASTERN NEW YORK

CITY           SKY/WX    TMP DP  RH WIND       PRES   REMARKS
ALBANY         MOCLDY    14   3  61 CALM      30.28F
NEW YORK CITY  PTCLDY    22   8  55 SW8       30.35F WCI  12
$$

ANZALL-070600-
MARINE OBSERVATIONS

STATION/POSITION TIME  TEMP    WIND        PRES    VSBY  WAVE
                       AIR SEA DIR/SP/G                  HT/PER
                 (UTC) (F)     (DEG/KT/KT) (MB)    (MI)  (FT/S)
BOSTON BUOY      0450   22 36  230/ 17/ 21 1025.6F         3/ 3
BUZZARDS BAY     0400          240/ 15/ 16 1027.7F
NANTUCKET SOUND  0450   25 31  260/ 12/ 14 1026.6F         1/ 2
MASS BAY-STELLWA 0404   24 35  230/ 19/ 23   N/A    1 7/8  4/ 5
ISLE OF SHOALS   0500   22     240/ 19/ 20 1023.8F
S OF BLOCK IS    0408      36                N/A           2/ 9
$$

......................KEY.........................
  SKY/WX - SKY CONDITION/PRESENT WEATHER
  TMP    - TEMPERATURE IN FAHRENHEIT
  DWPT   - DEWPOINT IN FAHRENHEIT
  RH     - RELATIVE HUMIDITY IN PERCENT
  WIND   - DIRECTION AND SPEED IN MPH
  PRES   - MEAN SEA LEVEL PRESSURE IN INCHES OF HG
  WCI    - WIND CHILL INDEX
  VSB    - VISIBILITY IN MILES
  HX     - HEAT INDEX
  TC     - TEMPERATURE IN CELSIUS
  VRB    - VARIABLE WIND DIRECTION
  N/A    - NOT AVAILABLE



USA.gov is the U.S. government's official web portal to all federal, state and local government web resources and services.